STARLINK-11609, 63132

Orbit data source: Space-Track

STARLINK-11609, 63132 is a payload satellite owned by SpaceX/Seattle (US) in LEO that was launched on Mon, 03 Mar 2025 UTC via an FALCON 9 launch vehicle from the Air Force Eastern Test Range (AFETR). Payload-class satellites include a variety of spacecraft equipped with specific instruments for various scientific and technological missions. These include communications satellites like Starlink; space stations such as the ISS; scientific satellites like the Hubble; Earth observation satellites from companies like Planet Labs, Umbra, and HawkEye 360; GPS; miniature CubeSats for education and research; and military/defense satellites.

Loading next visibility...
Identifier
63132, 2025-043A
Orbit
LEO
Country
Flag of USUS
Related business
Manufacturer
SpaceX/Seattle
Mission
Operational Commercial Communications
Bus & Motor
STARLINK V2MD, Unknown motor
Mass
960 kg wet, ~910 kg dry
Launch date (UTC)
2025-03-03 (2 years ago)
Launch vehicle
FALCON 9
Launch site
Air Force Eastern Test Range (AFETR)
Object type
Payload
Rocket body
Debris
Shape & HBR
Box + 2 Pan, 18.1 m
Radar Cross Section
36.964 m², Large (>1 m²)

Expand to show TLE details & history
Last TLE update: 18 hours ago

TLE from 18 hours ago
0 STARLINK-11609
1 63132U 25043A   26255.57799452  .00216250  00000-0  16407-2 0  9993
2 63132  43.0006 204.3223 0001295 278.3558  81.7163 15.70906756 88852
Epoch: 2026-09-12T13:52Z
TLE epoch observation values (Epoch: 2026-09-12T13:52:18.726Z)
Latitude
-0.00001°
Longitude
4.65928°
Altitude
355.95 km
Speed
7.698 km/s
True Right ascension
13h 37m 17s
True Declination
0° 00' 00"
Sunlit
Object was in daylight at epoch
Visualization orbit readout
Latitude
Unknown
Longitude
Unknown
Altitude
Unknown
Speed
Unknown
Apparent Right ascension
Unknown
Apparent Declination
Unknown
Sunlit
N/A
Visualization observer readout
Local Sidereal Time
23:51:52
Azimuth
Unknown
Elevation
Unknown
Doppler factor
Unknown
Orbital elements
Apogee altitude
359.158 km
Perigee altitude
357.413 km
Semi-major axis
6,736.423 km
Eccentricity
0.00013
Inclination
43.0006°
RAAN
204.3223°
Arg. of periapsis
278.3558°
True anomaly
81.73099°
Mean anomaly
81.7163°
Eccentric anomaly
81.72364°
Mean motion
3.92554 °/min
Orbital period
91.71 mins
BSTAR
0.0016407
Loading maneuver chart data...
Computing Atmospheric mass density...
Loading historical data...
Loading historical data...
Loading historical data...
Loading historical data...
Loading historical data...
Loading historical data...
Loading historical data...

Documentation

Showing up to 5 results
|